Location: Ambatotampy
(18.8181°S, 47.6186°E)
Time: 23:36:28
(UTC+00:00)

CENTAUR R/B - Pass Details

Date: 21 January 2021
Orbit: 742 x 1446 km, 63.5° (Epoch: 23 February)

Event Time Altitude Azimuth Distance (km) Brightness Sun altitude
Rises 00:44:18 0° 192° (SSW) 3,306 5.5 -22.9°
Reaches altitude 10° 00:47:01 10° 182° (S) 2,318 4.8 -22.4°
Maximum altitude 00:51:38 32° 119° (ESE) 1,276 3.8 -21.5°
Drops below altitude 10° 00:56:08 10° 56° (ENE) 2,261 4.7 -20.5°
Sets 00:58:45 0° 46° (NE) 3,212 5.4 -20.0°
